| time (UTC) | temp F | wind direction | speed knots | gust knots | rain 1hr in | rain 24hr in | rain mn in | humidity % | barometer mb |
| 20260506201522 | 72 | 337 | 1.7 | 6.1 | 0.00 | 0.00 | 0.00 | 57 | 1019.7 |
| 20260506201019 | 72 | 313 | 1.7 | 6.1 | 0.00 | 0.00 | 0.00 | 57 | 1019.7 |
| 20260506200519 | 72 | 131 | 0.9 | 3.5 | 0.00 | 0.00 | 0.00 | 59 | 1019.8 |
| 20260506200019 | 72 | 290 | 0.0 | 6.1 | 0.00 | 0.00 | 0.00 | 60 | 1019.9 |
| 20260506195517 | 71 | 271 | 1.7 | 7.0 | 0.00 | 0.00 | 0.00 | 58 | 1019.9 |
| 20260506195017 | 71 | 328 | 0.9 | 7.0 | 0.00 | 0.00 | 0.00 | 61 | 1020.0 |
| 20260506194517 | 71 | 303 | 0.0 | 8.7 | 0.00 | 0.00 | 0.00 | 61 | 1020.0 |
| 20260506194017 | 71 | 336 | 2.6 | 7.8 | 0.00 | 0.00 | 0.00 | 62 | 1020.0 |
| 20260506193517 | 71 | 332 | 0.9 | 7.0 | 0.00 | 0.00 | 0.00 | 61 | 1020.1 |
| 20260506193015 | 71 | 316 | 0.9 | 7.0 | 0.00 | 0.00 | 0.00 | 61 | 1020.1 |
| 20260506192515 | 71 | 338 | 1.7 | 7.8 | 0.00 | 0.00 | 0.00 | 61 | 1020.3 |
| 20260506192014 | 71 | 350 | 0.9 | 7.8 | 0.00 | 0.00 | 0.00 | 61 | 1020.3 |
| 20260506191517 | 71 | 15 | 0.9 | 5.2 | 0.00 | 0.00 | 0.00 | 61 | 1020.3 |
| 20260506191014 | 71 | 45 | 0.9 | 7.0 | 0.00 | 0.00 | 0.00 | 61 | 1020.3 |
| 20260506190513 | 71 | 317 | 3.5 | 7.0 | 0.00 | 0.00 | 0.00 | 63 | 1020.4 |
| 20260506190012 | 70 | 323 | 0.0 | 3.5 | 0.00 | 0.00 | 0.00 | 65 | 1020.3 |
| 20260506185510 | 70 | 360 | 0.9 | 5.2 | 0.00 | 0.00 | 0.00 | 64 | 1020.4 |
| 20260506185011 | 70 | 44 | 0.0 | 6.1 | 0.00 | 0.00 | 0.00 | 66 | 1020.4 |
| 20260506184509 | 70 | 34 | 2.6 | 6.1 | 0.00 | 0.00 | 0.00 | 64 | 1020.5 |
| 20260506184009 | 70 | 318 | 1.7 | 6.1 | 0.00 | 0.00 | 0.00 | 64 | 1020.5 |
| 20260506183508 | 69 | 322 | 0.0 | 5.2 | 0.00 | 0.00 | 0.00 | 66 | 1020.4 |
| 20260506183009 | 69 | 317 | 0.0 | 5.2 | 0.00 | 0.00 | 0.00 | 66 | 1020.5 |
| 20260506182505 | 69 | 324 | 0.9 | 6.1 | 0.00 | 0.00 | 0.00 | 66 | 1020.6 |
| 20260506182007 | 69 | 313 | 0.9 | 6.1 | 0.00 | 0.00 | 0.00 | 68 | 1020.5 |
| 20260506181504 | 69 | 337 | 0.0 | 4.3 | 0.00 | 0.00 | 0.00 | 68 | 1020.5 |
| 20260506181003 | 68 | 346 | 0.9 | 5.2 | 0.00 | 0.00 | 0.00 | 68 | 1020.6 |
| 20260506180503 | 68 | 334 | 0.9 | 5.2 | 0.00 | 0.00 | 0.00 | 68 | 1020.5 |
| 20260506180003 | 68 | 305 | 0.9 | 3.5 | 0.00 | 0.00 | 0.00 | 68 | 1020.5 |
| 20260506175502 | 68 | 307 | 0.0 | 0.0 | 0.00 | 0.00 | 0.00 | 68 | 1020.5 |
| 20260506175001 | 67 | 307 | 0.0 | 0.9 | 0.00 | 0.00 | 0.00 | 68 | 1020.5 |
| 20260506174610 | 67 | 311 | 0.0 | 2.6 | 0.00 | 0.00 | 0.00 | 70 | 1020.5 |
| 20260506174058 | 67 | 318 | 0.0 | 3.5 | 0.00 | 0.00 | 0.00 | 70 | 1020.6 |
| 20260506173558 | 66 | 317 | 0.0 | 3.5 | 0.00 | 0.00 | 0.00 | 71 | 1020.6 |
| 20260506173058 | 66 | 305 | 0.9 | 3.5 | 0.00 | 0.00 | 0.00 | 72 | 1020.7 |
| 20260506172553 | 65 | 329 | 0.0 | 2.6 | 0.00 | 0.00 | 0.00 | 75 | 1020.6 |
| 20260506172053 | 65 | 315 | 0.0 | 1.7 | 0.00 | 0.00 | 0.00 | 73 | 1020.7 |
| 20260506171053 | 65 | 315 | 0.0 | 2.6 | 0.00 | 0.00 | 0.00 | 72 | 1020.7 |
| 20260506170553 | 65 | 315 | 0.0 | 3.5 | 0.00 | 0.00 | 0.00 | 73 | 1020.7 |
| 20260506170052 | 64 | 323 | 1.7 | 3.5 | 0.00 | 0.00 | 0.00 | 73 | 1020.7 |
| 20260506165550 | 64 | 288 | 0.0 | 3.5 | 0.00 | 0.00 | 0.00 | 73 | 1020.7 |
| 20260506165049 | 64 | 269 | 0.0 | 3.5 | 0.00 | 0.00 | 0.00 | 75 | 1020.7 |
| 20260506164553 | 63 | 303 | 0.0 | 1.7 | 0.00 | 0.00 | 0.00 | 76 | 1020.7 |
| 20260506164045 | 63 | 312 | 0.0 | 2.6 | 0.00 | 0.00 | 0.00 | 77 | 1020.7 |
| 20260506163545 | 62 | 327 | 0.0 | 3.5 | 0.00 | 0.00 | 0.00 | 76 | 1020.7 |
| 20260506163057 | 62 | 280 | 0.0 | 2.6 | 0.00 | 0.00 | 0.00 | 78 | 1020.8 |
| 20260506162542 | 62 | 303 | 0.9 | 3.5 | 0.00 | 0.00 | 0.00 | 78 | 1020.8 |
| 20260506161044 | 61 | 338 | 0.0 | 4.3 | 0.00 | 0.00 | 0.00 | 79 | 1020.8 |
| 20260506160539 | 60 | 339 | 0.0 | 4.3 | 0.00 | 0.00 | 0.00 | 80 | 1020.8 |
| 20260506160038 | 60 | 280 | 0.9 | 3.5 | 0.00 | 0.00 | 0.00 | 81 | 1020.8 |
| 20260506155536 | 59 | 245 | 0.0 | 0.0 | 0.00 | 0.00 | 0.00 | 81 | 1020.9 |
| 20260506155038 | 59 | 246 | 0.0 | 0.0 | 0.00 | 0.00 | 0.00 | 83 | 1020.9 |
| 20260506154538 | 59 | 246 | 0.0 | 0.0 | 0.00 | 0.00 | 0.00 | 82 | 1020.9 |
| 20260506154034 | 59 | 246 | 0.0 | 0.9 | 0.00 | 0.00 | 0.00 | 83 | 1020.9 |
| 20260506153534 | 59 | 246 | 0.0 | 1.7 | 0.00 | 0.00 | 0.00 | 82 | 1020.9 |
| 20260506153034 | 59 | 246 | 0.0 | 1.7 | 0.00 | 0.00 | 0.00 | 82 | 1020.9 |
| 20260506152533 | 59 | 246 | 0.0 | 2.6 | 0.00 | 0.00 | 0.00 | 84 | 1020.9 |
| 20260506152031 | 58 | 246 | 0.0 | 2.6 | 0.00 | 0.00 | 0.00 | 85 | 1020.9 |
| 20260506151538 | 58 | 306 | 0.0 | 3.5 | 0.00 | 0.00 | 0.00 | 85 | 1020.8 |
| 20260506151029 | 58 | 309 | 0.0 | 3.5 | 0.00 | 0.00 | 0.00 | 85 | 1020.8 |
| 20260506150529 | 57 | 273 | 0.0 | 1.7 | 0.00 | 0.00 | 0.00 | 85 | 1020.8 |
| 20260506150028 | 57 | 273 | 0.0 | 1.7 | 0.00 | 0.00 | 0.00 | 86 | 1020.8 |
| 20260506145528 | 57 | 275 | 0.0 | 1.7 | 0.00 | 0.00 | 0.00 | 87 | 1020.8 |
| 20260506145025 | 56 | 277 | 0.0 | 1.7 | 0.00 | 0.00 | 0.00 | 88 | 1020.8 |
| 20260506144525 | 56 | 277 | 0.0 | 1.7 | 0.00 | 0.00 | 0.00 | 88 | 1020.8 |
| 20260506144022 | 56 | 263 | 0.0 | 0.0 | 0.00 | 0.00 | 0.00 | 89 | 1020.7 |
| 20260506143522 | 55 | 263 | 0.0 | 0.0 | 0.00 | 0.00 | 0.00 | 89 | 1020.7 |
| 20260506143021 | 55 | 263 | 0.0 | 0.0 | 0.00 | 0.00 | 0.00 | 89 | 1020.7 |
| 20260506142522 | 55 | 263 | 0.0 | 0.0 | 0.00 | 0.00 | 0.00 | 89 | 1020.6 |
| 20260506142024 | 55 | 263 | 0.0 | 0.0 | 0.00 | 0.00 | 0.00 | 89 | 1020.6 |
| 20260506141519 | 55 | 263 | 0.0 | 0.0 | 0.00 | 0.00 | 0.00 | 89 | 1020.5 |
| 20260506141023 | 55 | 263 | 0.0 | 0.0 | 0.00 | 0.00 | 0.00 | 89 | 1020.4 |
| 20260506140518 | 55 | 263 | 0.0 | 0.0 | 0.00 | 0.00 | 0.00 | 89 | 1020.4 |
| 20260506140025 | 55 | 263 | 0.0 | 0.0 | 0.00 | 0.00 | 0.00 | 89 | 1020.3 |
| 20260506135518 | 55 | 263 | 0.0 | 0.0 | 0.00 | 0.00 | 0.00 | 89 | 1020.3 |
| 20260506135020 | 54 | 264 | 0.0 | 0.0 | 0.00 | 0.00 | 0.00 | 89 | 1020.2 |
| 20260506134517 | 54 | 264 | 0.0 | 0.0 | 0.00 | 0.00 | 0.00 | 89 | 1020.2 |
| 20260506134017 | 54 | 264 | 0.0 | 0.0 | 0.00 | 0.00 | 0.00 | 89 | 1020.3 |
| 20260506133516 | 54 | 264 | 0.0 | 0.0 | 0.00 | 0.00 | 0.00 | 88 | 1020.3 |
| 20260506133017 | 54 | 264 | 0.0 | 0.0 | 0.00 | 0.00 | 0.00 | 88 | 1020.2 |
| 20260506132518 | 54 | 264 | 0.0 | 0.0 | 0.00 | 0.00 | 0.00 | 88 | 1020.2 |
| 20260506132014 | 55 | 264 | 0.0 | 0.0 | 0.00 | 0.00 | 0.00 | 88 | 1020.1 |
| 20260506131519 | 55 | 264 | 0.0 | 0.0 | 0.00 | 0.00 | 0.00 | 88 | 1020.1 |
| 20260506131015 | 55 | 264 | 0.0 | 0.0 | 0.00 | 0.00 | 0.00 | 87 | 1020.0 |
| 20260506130516 | 55 | 264 | 0.0 | 0.0 | 0.00 | 0.00 | 0.00 | 87 | 1020.0 |
| 20260506130013 | 55 | 264 | 0.0 | 0.0 | 0.00 | 0.00 | 0.00 | 87 | 1020.0 |
| 20260506125512 | 55 | 264 | 0.0 | 0.0 | 0.00 | 0.00 | 0.00 | 87 | 1020.0 |
| 20260506125012 | 55 | 264 | 0.0 | 0.0 | 0.00 | 0.00 | 0.00 | 87 | 1019.9 |
| 20260506124511 | 55 | 264 | 0.0 | 0.0 | 0.00 | 0.00 | 0.00 | 87 | 1019.9 |
| 20260506124011 | 55 | 264 | 0.0 | 0.0 | 0.00 | 0.00 | 0.00 | 87 | 1019.9 |
| 20260506123515 | 55 | 264 | 0.0 | 0.0 | 0.00 | 0.00 | 0.00 | 87 | 1019.9 |
| 20260506123011 | 55 | 264 | 0.0 | 0.0 | 0.00 | 0.00 | 0.00 | 86 | 1019.8 |
| 20260506122510 | 55 | 264 | 0.0 | 0.0 | 0.00 | 0.00 | 0.00 | 86 | 1019.9 |
| 20260506122009 | 55 | 264 | 0.0 | 0.0 | 0.00 | 0.00 | 0.00 | 87 | 1019.9 |
| 20260506121509 | 55 | 264 | 0.0 | 0.0 | 0.00 | 0.00 | 0.00 | 87 | 1019.9 |
| 20260506121008 | 55 | 264 | 0.0 | 0.0 | 0.00 | 0.00 | 0.00 | 87 | 1019.8 |
| 20260506120508 | 55 | 264 | 0.0 | 0.0 | 0.00 | 0.00 | 0.00 | 86 | 1019.8 |
| 20260506120012 | 55 | 264 | 0.0 | 0.0 | 0.00 | 0.00 | 0.00 | 87 | 1019.7 |
| 20260506115508 | 55 | 264 | 0.0 | 0.0 | 0.00 | 0.00 | 0.00 | 87 | 1019.7 |
| 20260506115008 | 55 | 264 | 0.0 | 0.0 | 0.00 | 0.00 | 0.00 | 87 | 1019.7 |
| 20260506114508 | 55 | 264 | 0.0 | 0.0 | 0.00 | 0.00 | 0.00 | 87 | 1019.7 |
| 20260506114006 | 55 | 264 | 0.0 | 0.0 | 0.00 | 0.00 | 0.00 | 86 | 1019.7 |
| 20260506113506 | 55 | 264 | 0.0 | 0.0 | 0.00 | 0.00 | 0.00 | 86 | 1019.7 |
| 20260506113006 | 55 | 264 | 0.0 | 0.0 | 0.00 | 0.00 | 0.00 | 86 | 1019.6 |
| 20260506112509 | 55 | 264 | 0.0 | 0.0 | 0.00 | 0.00 | 0.00 | 86 | 1019.5 |
| 20260506112004 | 55 | 264 | 0.0 | 0.0 | 0.00 | 0.00 | 0.00 | 86 | 1019.5 |
| 20260506111504 | 55 | 264 | 0.0 | 0.0 | 0.00 | 0.00 | 0.00 | 86 | 1019.4 |
| 20260506110503 | 55 | 264 | 0.0 | 0.0 | 0.00 | 0.00 | 0.00 | 86 | 1019.3 |
| 20260506110004 | 55 | 264 | 0.0 | 0.0 | 0.00 | 0.00 | 0.00 | 86 | 1019.3 |
| 20260506105501 | 55 | 264 | 0.0 | 0.0 | 0.00 | 0.00 | 0.00 | 86 | 1019.3 |
| 20260506105004 | 55 | 266 | 0.0 | 0.0 | 0.00 | 0.00 | 0.00 | 86 | 1019.3 |
| 20260506104502 | 55 | 266 | 0.0 | 0.0 | 0.00 | 0.00 | 0.00 | 86 | 1019.3 |
| 20260506104001 | 55 | 266 | 0.0 | 0.0 | 0.00 | 0.00 | 0.00 | 86 | 1019.3 |
| 20260506103501 | 55 | 267 | 0.0 | 0.0 | 0.00 | 0.00 | 0.00 | 86 | 1019.3 |
| 20260506103002 | 55 | 267 | 0.0 | 0.0 | 0.00 | 0.00 | 0.00 | 86 | 1019.3 |
| 20260506102600 | 55 | 267 | 0.0 | 0.0 | 0.00 | 0.00 | 0.00 | 86 | 1019.2 |
| 20260506102100 | 55 | 267 | 0.0 | 0.0 | 0.00 | 0.00 | 0.00 | 86 | 1019.1 |
| 20260506101634 | 55 | 267 | 0.0 | 0.0 | 0.00 | 0.00 | 0.00 | 86 | 1019.1 |
| 20260506101100 | 55 | 267 | 0.0 | 0.0 | 0.00 | 0.00 | 0.00 | 86 | 1019.1 |
| 20260506100559 | 55 | 267 | 0.0 | 0.0 | 0.00 | 0.00 | 0.00 | 86 | 1019.0 |
| 20260506100100 | 55 | 267 | 0.0 | 1.7 | 0.00 | 0.00 | 0.00 | 86 | 1019.1 |
| 20260506095559 | 55 | 267 | 0.0 | 1.7 | 0.00 | 0.01 | 0.00 | 86 | 1019.1 |
| 20260506095100 | 55 | 279 | 0.0 | 0.0 | 0.00 | 0.01 | 0.00 | 86 | 1019.1 |
| 20260506094601 | 55 | 279 | 0.0 | 0.9 | 0.00 | 0.01 | 0.00 | 86 | 1019.1 |
| 20260506094058 | 55 | 279 | 0.0 | 0.0 | 0.00 | 0.01 | 0.00 | 86 | 1019.1 |
| 20260506093558 | 55 | 279 | 0.0 | 0.0 | 0.00 | 0.01 | 0.00 | 86 | 1019.0 |
| 20260506093101 | 55 | 279 | 0.0 | 0.0 | 0.00 | 0.01 | 0.00 | 87 | 1019.1 |
| 20260506092558 | 55 | 279 | 0.0 | 0.9 | 0.00 | 0.01 | 0.00 | 87 | 1019.1 |
| 20260506092058 | 55 | 279 | 0.0 | 2.6 | 0.00 | 0.01 | 0.00 | 87 | 1019.2 |
| 20260506091557 | 55 | 279 | 0.0 | 2.6 | 0.00 | 0.01 | 0.00 | 87 | 1019.2 |
| 20260506091059 | 55 | 211 | 0.0 | 0.0 | 0.00 | 0.01 | 0.00 | 87 | 1019.2 |
| 20260506090557 | 55 | 210 | 0.0 | 0.0 | 0.00 | 0.01 | 0.00 | 87 | 1019.2 |
| 20260506090110 | 55 | 210 | 0.0 | 0.0 | 0.00 | 0.01 | 0.00 | 87 | 1019.3 |
| 20260506085557 | 55 | 210 | 0.0 | 0.0 | 0.00 | 0.04 | 0.00 | 87 | 1019.2 |
| 20260506085055 | 55 | 210 | 0.0 | 0.0 | 0.00 | 0.04 | 0.00 | 87 | 1019.2 |
| 20260506084623 | 55 | 210 | 0.0 | 0.0 | 0.00 | 0.04 | 0.00 | 87 | 1019.2 |
| 20260506084056 | 55 | 210 | 0.0 | 0.0 | 0.00 | 0.04 | 0.00 | 87 | 1019.2 |
| 20260506083556 | 54 | 210 | 0.0 | 0.0 | 0.00 | 0.04 | 0.00 | 86 | 1019.2 |
| 20260506083057 | 54 | 210 | 0.0 | 0.0 | 0.00 | 0.04 | 0.00 | 86 | 1019.2 |
| 20260506082555 | 54 | 210 | 0.0 | 0.0 | 0.00 | 0.04 | 0.00 | 87 | 1019.1 |
| 20260506082054 | 54 | 200 | 0.0 | 0.0 | 0.00 | 0.04 | 0.00 | 86 | 1019.2 |
| 20260506081610 | 54 | 200 | 0.0 | 0.0 | 0.00 | 0.04 | 0.00 | 87 | 1019.1 |
| 20260506081054 | 54 | 200 | 0.0 | 0.0 | 0.00 | 0.04 | 0.00 | 87 | 1019.1 |
| 20260506080553 | 54 | 200 | 0.0 | 0.0 | 0.00 | 0.04 | 0.00 | 87 | 1019.1 |
| 20260506073051 | 54 | 207 | 0.0 | 2.6 | 0.00 | 0.11 | 0.00 | 86 | 1018.9 |
| 20260506072550 | 54 | 198 | 0.0 | 2.6 | 0.00 | 0.11 | 0.00 | 86 | 1018.9 |
| 20260506072050 | 54 | 261 | 0.0 | 2.6 | 0.00 | 0.11 | 0.00 | 86 | 1018.9 |
| 20260506071548 | 54 | 261 | 0.0 | 2.6 | 0.00 | 0.11 | 0.00 | 86 | 1018.9 |
| 20260506071047 | 54 | 261 | 0.0 | 1.7 | 0.00 | 0.11 | 0.00 | 86 | 1018.7 |
| 20260506070547 | 54 | 262 | 0.0 | 1.7 | 0.00 | 0.11 | 0.00 | 87 | 1018.7 |
| 20260506062044 | 55 | 274 | 0.0 | 3.5 | 0.00 | 0.13 | 0.11 | 86 | 1018.4 |
| 20260506061548 | 55 | 257 | 0.9 | 3.5 | 0.00 | 0.13 | 0.11 | 86 | 1018.3 |
| 20260506061043 | 55 | 261 | 0.0 | 3.5 | 0.00 | 0.13 | 0.11 | 86 | 1018.2 |
| 20260506060543 | 55 | 223 | 0.0 | 4.3 | 0.00 | 0.13 | 0.11 | 86 | 1018.2 |
| 20260506051037 | 56 | 219 | 0.9 | 6.1 | 0.00 | 0.17 | 0.11 | 87 | 1017.8 |
| 20260506050537 | 56 | 261 | 0.9 | 5.2 | 0.00 | 0.17 | 0.11 | 88 | 1017.8 |
| 20260506045036 | 56 | 255 | 0.0 | 5.2 | 0.00 | 0.23 | 0.11 | 88 | 1017.7 |
| 20260506044542 | 56 | 279 | 0.9 | 5.2 | 0.00 | 0.23 | 0.11 | 88 | 1017.5 |
| 20260506044036 | 56 | 259 | 0.9 | 3.5 | 0.00 | 0.23 | 0.11 | 87 | 1017.5 |
| 20260506043536 | 56 | 242 | 0.0 | 2.6 | 0.00 | 0.23 | 0.11 | 87 | 1017.5 |
| 20260506043034 | 56 | 286 | 0.0 | 6.1 | 0.00 | 0.23 | 0.11 | 87 | 1017.4 |
| 20260506042534 | 56 | 264 | 0.9 | 6.1 | 0.00 | 0.23 | 0.11 | 87 | 1017.3 |
| 20260506042033 | 56 | 220 | 0.9 | 5.2 | 0.00 | 0.23 | 0.11 | 87 | 1017.2 |
| 20260506041549 | 56 | 220 | 1.7 | 5.2 | 0.00 | 0.23 | 0.11 | 87 | 1017.2 |
| 20260506041032 | 56 | 223 | 0.9 | 4.3 | 0.00 | 0.23 | 0.11 | 86 | 1017.2 |
| 20260506040532 | 57 | 248 | 0.9 | 4.3 | 0.00 | 0.23 | 0.11 | 86 | 1017.2 |
| 20260506040033 | 57 | 267 | 0.9 | 5.2 | 0.00 | 0.23 | 0.11 | 86 | 1017.2 |
| 20260506035533 | 57 | 222 | 0.0 | 7.0 | 0.00 | 0.23 | 0.11 | 86 | 1017.1 |
| 20260506035031 | 57 | 90 | 1.7 | 7.0 | 0.00 | 0.23 | 0.11 | 86 | 1017.1 |
| 20260506034546 | 57 | 224 | 0.9 | 5.2 | 0.00 | 0.23 | 0.11 | 86 | 1017.0 |
| 20260506034031 | 57 | 205 | 0.0 | 4.3 | 0.00 | 0.23 | 0.11 | 85 | 1016.9 |
| 20260506033529 | 57 | 304 | 0.9 | 4.3 | 0.00 | 0.23 | 0.11 | 85 | 1016.9 |
| 20260506033028 | 57 | 183 | 0.0 | 4.3 | 0.00 | 0.23 | 0.11 | 85 | 1016.8 |
| 20260506032528 | 57 | 305 | 0.9 | 4.3 | 0.00 | 0.23 | 0.11 | 85 | 1016.8 |
| 20260506032027 | 57 | 217 | 0.0 | 4.3 | 0.00 | 0.23 | 0.11 | 84 | 1016.6 |
| 20260506031526 | 57 | 233 | 0.0 | 3.5 | 0.00 | 0.23 | 0.11 | 84 | 1016.5 |
| 20260506031025 | 57 | 279 | 0.9 | 4.3 | 0.00 | 0.23 | 0.11 | 84 | 1016.4 |
| 20260506030026 | 58 | 282 | 0.9 | 5.2 | 0.00 | 0.23 | 0.11 | 84 | 1016.3 |
| 20260506025529 | 58 | 211 | 0.9 | 5.2 | 0.00 | 0.23 | 0.11 | 83 | 1016.3 |
| 20260506025024 | 58 | 272 | 0.9 | 5.2 | 0.00 | 0.23 | 0.11 | 83 | 1016.3 |
| 20260506024528 | 58 | 259 | 0.0 | 3.5 | 0.00 | 0.23 | 0.11 | 82 | 1016.2 |
| 20260506024023 | 58 | 263 | 0.9 | 3.5 | 0.00 | 0.23 | 0.11 | 82 | 1016.1 |
| 20260506023526 | 58 | 282 | 0.9 | 3.5 | 0.00 | 0.23 | 0.11 | 82 | 1016.0 |
| 20260506023023 | 59 | 219 | 0.9 | 3.5 | 0.00 | 0.23 | 0.11 | 81 | 1016.2 |
| 20260506022523 | 59 | 283 | 0.0 | 3.5 | 0.00 | 0.23 | 0.11 | 81 | 1016.1 |
| 20260506022023 | 59 | 236 | 0.0 | 2.6 | 0.00 | 0.23 | 0.11 | 80 | 1016.1 |
| 20260506021523 | 59 | 238 | 0.9 | 2.6 | 0.00 | 0.23 | 0.11 | 80 | 1016.1 |
| 20260506021021 | 59 | 244 | 0.0 | 2.6 | 0.00 | 0.23 | 0.11 | 79 | 1016.0 |
| 20260506020622 | 60 | 230 | 0.0 | 1.7 | 0.00 | 0.23 | 0.11 | 79 | 1015.9 |
| 20260506020022 | 60 | 244 | 0.0 | 4.3 | 0.00 | 0.23 | 0.11 | 78 | 1015.8 |
| 20260506015522 | 60 | 231 | 0.0 | 4.3 | 0.00 | 0.23 | 0.11 | 78 | 1015.7 |
| 20260506015022 | 60 | 282 | 0.0 | 3.5 | 0.00 | 0.23 | 0.11 | 77 | 1015.7 |
| 20260506014523 | 60 | 211 | 0.0 | 3.5 | 0.00 | 0.23 | 0.11 | 77 | 1015.6 |
| 20260506014021 | 61 | 259 | 0.9 | 3.5 | 0.00 | 0.23 | 0.11 | 77 | 1015.6 |
| 20260506013521 | 61 | 285 | 0.0 | 3.5 | 0.00 | 0.23 | 0.11 | 77 | 1015.5 |
| 20260506013036 | 61 | 281 | 0.0 | 4.3 | 0.00 | 0.23 | 0.11 | 77 | 1015.5 |
| 20260506012521 | 61 | 269 | 0.9 | 4.3 | 0.00 | 0.23 | 0.11 | 77 | 1015.5 |
| 20260506012021 | 61 | 213 | 0.0 | 3.5 | 0.00 | 0.23 | 0.11 | 77 | 1015.4 |
| 20260506011526 | 61 | 211 | 0.9 | 4.3 | 0.00 | 0.23 | 0.11 | 77 | 1015.5 |
| 20260506011020 | 61 | 243 | 0.9 | 4.3 | 0.00 | 0.23 | 0.11 | 77 | 1015.5 |
| 20260506010521 | 61 | 265 | 0.9 | 3.5 | 0.00 | 0.23 | 0.11 | 77 | 1015.5 |
| 20260506010024 | 62 | 236 | 0.9 | 4.3 | 0.00 | 0.23 | 0.11 | 78 | 1015.5 |
| 20260506005521 | 62 | 267 | 0.9 | 4.3 | 0.00 | 0.23 | 0.11 | 78 | 1015.5 |
| 20260506005019 | 62 | 238 | 0.0 | 2.6 | 0.00 | 0.23 | 0.11 | 78 | 1015.5 |
| 20260506004521 | 62 | 248 | 0.9 | 4.3 | 0.00 | 0.23 | 0.11 | 78 | 1015.5 |
| 20260506004020 | 62 | 270 | 0.9 | 5.2 | 0.00 | 0.23 | 0.11 | 78 | 1015.4 |
| 20260506003520 | 62 | 267 | 0.9 | 5.2 | 0.00 | 0.23 | 0.11 | 78 | 1015.4 |
| 20260506003020 | 62 | 252 | 0.0 | 2.6 | 0.00 | 0.23 | 0.11 | 78 | 1015.4 |
| 20260506002519 | 62 | 252 | 0.0 | 2.6 | 0.00 | 0.23 | 0.11 | 77 | 1015.4 |
| 20260506002019 | 62 | 254 | 0.0 | 2.6 | 0.00 | 0.23 | 0.11 | 77 | 1015.3 |
| 20260506001519 | 62 | 316 | 0.0 | 2.6 | 0.00 | 0.23 | 0.11 | 78 | 1015.3 |
| 20260506001019 | 62 | 247 | 0.0 | 2.6 | 0.00 | 0.23 | 0.11 | 77 | 1015.3 |
| 20260506000518 | 62 | 244 | 0.0 | 2.6 | 0.00 | 0.23 | 0.11 | 78 | 1015.3 |
| 20260506000018 | 62 | 246 | 0.0 | 2.6 | 0.00 | 0.23 | 0.11 | 78 | 1015.3 |
| 20260505235518 | 62 | 265 | 0.0 | 2.6 | 0.00 | 0.23 | 0.11 | 78 | 1015.4 |
| 20260505235021 | 62 | 267 | 0.0 | 2.6 | 0.00 | 0.23 | 0.11 | 78 | 1015.4 |
| 20260505234518 | 62 | 255 | 0.0 | 0.0 | 0.00 | 0.23 | 0.11 | 78 | 1015.4 |
| 20260505234019 | 62 | 262 | 0.0 | 0.0 | 0.00 | 0.23 | 0.11 | 78 | 1015.3 |
| 20260505233517 | 62 | 262 | 0.0 | 1.7 | 0.00 | 0.23 | 0.11 | 78 | 1015.3 |
| 20260505233025 | 62 | 261 | 0.0 | 1.7 | 0.00 | 0.23 | 0.11 | 77 | 1015.4 |
| 20260505232517 | 62 | 254 | 0.0 | 1.7 | 0.00 | 0.23 | 0.11 | 77 | 1015.4 |
| 20260505232017 | 62 | 257 | 0.0 | 1.7 | 0.00 | 0.23 | 0.11 | 78 | 1015.4 |
| 20260505231517 | 62 | 234 | 0.0 | 2.6 | 0.00 | 0.23 | 0.11 | 77 | 1015.4 |
| 20260505231016 | 62 | 289 | 0.0 | 2.6 | 0.00 | 0.23 | 0.11 | 77 | 1015.5 |
| 20260505230517 | 62 | 232 | 0.0 | 1.7 | 0.00 | 0.23 | 0.11 | 77 | 1015.5 |
| 20260505230016 | 62 | 272 | 0.0 | 3.5 | 0.00 | 0.23 | 0.11 | 77 | 1015.5 |
| 20260505225516 | 62 | 271 | 0.9 | 3.5 | 0.00 | 0.23 | 0.11 | 76 | 1015.5 |
| 20260505225016 | 62 | 291 | 0.0 | 1.7 | 0.00 | 0.23 | 0.11 | 77 | 1015.4 |
| 20260505224516 | 62 | 296 | 0.0 | 3.5 | 0.00 | 0.23 | 0.11 | 77 | 1015.5 |
| 20260505224016 | 62 | 300 | 0.0 | 3.5 | 0.00 | 0.23 | 0.11 | 77 | 1015.5 |
| 20260505223515 | 62 | 300 | 0.0 | 1.7 | 0.00 | 0.23 | 0.11 | 77 | 1015.4 |
| 20260505223015 | 62 | 302 | 0.0 | 2.6 | 0.00 | 0.23 | 0.11 | 76 | 1015.5 |
| 20260505222517 | 62 | 302 | 0.0 | 5.2 | 0.00 | 0.23 | 0.11 | 76 | 1015.5 |
| 20260505222016 | 62 | 286 | 0.9 | 2.6 | 0.00 | 0.23 | 0.11 | 76 | 1015.5 |
| 20260505221516 | 62 | 297 | 0.0 | 2.6 | 0.00 | 0.23 | 0.11 | 77 | 1015.5 |
| 20260505221017 | 62 | 265 | 0.0 | 3.5 | 0.00 | 0.23 | 0.11 | 76 | 1015.5 |
| 20260505220514 | 62 | 273 | 0.9 | 3.5 | 0.00 | 0.23 | 0.11 | 76 | 1015.6 |
| 20260505220028 | 63 | 234 | 0.0 | 2.6 | 0.00 | 0.23 | 0.11 | 76 | 1015.6 |
| 20260505215514 | 63 | 269 | 0.0 | 2.6 | 0.00 | 0.23 | 0.11 | 76 | 1015.6 |
| 20260505215014 | 63 | 261 | 0.0 | 2.6 | 0.00 | 0.23 | 0.11 | 76 | 1015.6 |
| 20260505214520 | 63 | 261 | 0.0 | 2.6 | 0.00 | 0.23 | 0.11 | 75 | 1015.7 |
| 20260505214015 | 63 | 270 | 0.0 | 2.6 | 0.00 | 0.23 | 0.11 | 75 | 1015.7 |
| 20260505213518 | 63 | 271 | 0.0 | 3.5 | 0.00 | 0.23 | 0.11 | 75 | 1015.7 |
| 20260505213014 | 64 | 284 | 0.0 | 1.7 | 0.00 | 0.23 | 0.11 | 73 | 1015.7 |
| 20260505212514 | 64 | 290 | 0.0 | 1.7 | 0.00 | 0.23 | 0.11 | 74 | 1015.7 |
| 20260505212014 | 64 | 291 | 0.0 | 4.3 | 0.00 | 0.23 | 0.11 | 72 | 1015.7 |
| 20260505211514 | 64 | 342 | 1.7 | 4.3 | 0.00 | 0.23 | 0.11 | 70 | 1015.7 |
| 20260505211016 | 64 | 302 | 0.9 | 4.3 | 0.00 | 0.23 | 0.11 | 71 | 1015.6 |
| 20260505210513 | 64 | 277 | 0.0 | 3.5 | 0.00 | 0.23 | 0.11 | 72 | 1015.7 |
| 20260505205511 | 64 | 289 | 0.0 | 3.5 | 0.00 | 0.23 | 0.11 | 74 | 1015.7 |
| 20260505205011 | 64 | 308 | 0.0 | 3.5 | 0.00 | 0.23 | 0.11 | 73 | 1015.7 |
| 20260505204510 | 64 | 239 | 0.0 | 4.3 | 0.00 | 0.23 | 0.11 | 74 | 1015.8 |
| 20260505204009 | 63 | 263 | 0.0 | 4.3 | 0.00 | 0.23 | 0.11 | 74 | 1015.7 |
| 20260505203510 | 64 | 203 | 0.0 | 3.5 | 0.00 | 0.23 | 0.11 | 73 | 1015.8 |
| 20260505203010 | 63 | 294 | 1.7 | 5.2 | 0.00 | 0.23 | 0.11 | 72 | 1015.8 |
| 20260505202509 | 63 | 307 | 1.7 | 5.2 | 0.00 | 0.23 | 0.11 | 73 | 1015.8 |
| 20260505202009 | 63 | 146 | 0.0 | 3.5 | 0.00 | 0.23 | 0.11 | 73 | 1015.8 |